Location: Izdebno
(52.6670°N, 16.2170°E)
Time: 13:32:12
(UTC+02:00)

Vanguard 2 - Pass Details

Date: 31 January 2023
Orbit: 553 x 2927 km, 32.9° (Epoch: 26 March)

Event Time Altitude Azimuth Distance (km) Brightness Sun altitude
Rises 01:05:32 0° 249° (WSW) 6,455 - -53.1°
Reaches altitude 10° 01:10:05 10° 242° (WSW) 5,612 - -52.8°
Maximum altitude 01:25:06 37° 184° (S) 3,912 - -51.8°
Exits shadow 01:36:33 16° 131° (SE) 4,776 11.4 -50.8°
Drops below altitude 10° 01:38:52 10° 125° (SE) 5,153 11.7 -50.6°
Sets 01:42:51 0° 118° (ESE) 5,893 12.1 -50.3°
